Move-IIb
1 44398U 19038N 19311.14184656 .00001012 00000-0 62621-4 0 9994
2 44398 97.5061 270.7319 0025482 173.1127 187.0458 15.11822990 18831
SONATE
1 44400U 19038Q 19311.14215763 .00000294 00000-0 20969-4 0 9992
2 44400 97.5079 270.7458 0025496 171.3431 188.8245 15.11731370 18835
BeeSat 9
1 44412U 19038AC 19311.39449929 .00000721 00000-0 45637-4 0 9999
2 44412 97.5074 271.0170 0022915 175.7526 184.3903 15.11923583 18565
JAISAT-1
1 44419U 19038F 19311.61840571 .00000695 00000-0 43552-4 0 9993
2 44419 97.5075 271.3332 0021785 174.5810 185.5661 15.12412332 18912
LightSail-2
1 44420U 19036AC 19310.74151528 .00005653 00000-0 12766-2 0 9993
2 44420 24.0060 78.9756 0015889 231.8915 128.0179 14.53571537 17704
Taurus 1
1 44530U 19059C 19311.68315121 .00000224 00000-0 76783-4 0 9995
2 44530 98.5831 25.5496 0015764 106.9705 253.3215 14.45261488 8163
